Location: Madrid
(40.4167°N, 3.7036°W)
Time: 10:48:00
(UTC+00:00)

ISS - Pass Details

Date: 01 May 2025
Orbit: 416 x 420 km, 51.6° (Epoch: 14 May)

Event Time Altitude Azimuth Distance (km) Brightness Sun altitude
Exits shadow 03:20:10 - 314° (NW) 1,785 -0.6 -19.4°
Reaches altitude 10° 03:21:28 10° 331° (NNW) 1,495 -0.8 -19.2°
Maximum altitude 03:22:56 12° 357° (N) 1,362 -0.7 -19.0°
Drops below altitude 10° 03:24:25 10° 23° (NNE) 1,496 0.0 -18.7°
Sets 03:27:33 0° 55° (NE) 2,361 1.8 -18.3°
